Powrót do katalogu

STARLINK-33678

AktywnyŁącznośćVLEO
NORAD 63509·PAYLOAD·🇺🇸 United States

Wystrzelony Apr 7, 2025 z Vandenberg Space Force Base

Loading…

Następne Przeloty (najbliższe 24 godziny)

TLE

ŚwieżeSource: CelesTrak SupGP

Epoka: Sep 15, 2026, 03:06 UTC

1 63509C 25071S   26258.12965278  .00066246  00000+0  21295-2 0  2583
2 63509  53.1581 338.4780 0001163  95.4929 307.6246 15.31680673    19

Śledź STARLINK-33678 w czasie rzeczywistym z AllMySat

Download on the App Store